TimePDT,TemperatureF,Dew PointF,Humidity,Sea Level PressureIn,VisibilityMPH,Wind Direction,Wind SpeedMPH,Gust SpeedMPH,PrecipitationIn,Events,Conditions,WindDirDegrees,DateUTC
12:53 AM,60.1,48.9,67,29.96,10.0,North,3.5,-,N/A,,Clear,360,2013-08-22 07:53:00
1:53 AM,60.1,48.0,64,29.96,10.0,NNE,3.5,-,N/A,,Clear,20,2013-08-22 08:53:00
2:53 AM,59.0,48.0,67,29.95,10.0,Calm,Calm,-,N/A,,Clear,0,2013-08-22 09:53:00
3:53 AM,60.1,46.9,62,29.94,10.0,Calm,Calm,-,N/A,,Clear,0,2013-08-22 10:53:00
4:53 AM,57.0,46.9,69,29.94,10.0,Calm,Calm,-,N/A,,Clear,0,2013-08-22 11:53:00
5:53 AM,59.0,46.9,64,29.94,10.0,Calm,Calm,-,N/A,,Clear,0,2013-08-22 12:53:00
6:53 AM,57.9,46.9,67,29.94,10.0,Calm,Calm,-,N/A,,Clear,0,2013-08-22 13:53:00
7:53 AM,62.1,48.9,62,29.94,10.0,North,4.6,-,N/A,,Clear,10,2013-08-22 14:53:00
8:53 AM,66.0,51.1,59,29.94,10.0,NNE,3.5,-,N/A,,Clear,30,2013-08-22 15:53:00
9:53 AM,66.9,52.0,59,29.94,10.0,NNE,4.6,-,N/A,,Clear,20,2013-08-22 16:53:00
10:53 AM,70.0,48.9,47,29.93,10.0,Variable,3.5,-,N/A,,Clear,0,2013-08-22 17:53:00
11:53 AM,71.1,48.0,44,29.92,10.0,NW,3.5,-,N/A,,Clear,320,2013-08-22 18:53:00
12:53 PM,72.0,50.0,46,29.90,10.0,NW,5.8,-,N/A,,Clear,320,2013-08-22 19:53:00
1:53 PM,75.9,51.1,42,29.89,10.0,NNE,5.8,-,N/A,,Clear,30,2013-08-22 20:53:00
2:53 PM,78.1,53.1,42,29.88,10.0,Variable,4.6,-,N/A,,Clear,0,2013-08-22 21:53:00
3:53 PM,79.0,50.0,36,29.86,10.0,Calm,Calm,-,N/A,,Clear,0,2013-08-22 22:53:00
4:53 PM,77.0,50.0,39,29.84,10.0,NNW,3.5,-,N/A,,Clear,330,2013-08-22 23:53:00
5:53 PM,77.0,50.0,39,29.83,10.0,Calm,Calm,-,N/A,,Clear,0,2013-08-23 00:53:00
6:53 PM,75.0,51.1,43,29.83,10.0,West,3.5,-,N/A,,Clear,270,2013-08-23 01:53:00
7:53 PM,73.0,51.1,46,29.84,10.0,Calm,Calm,-,N/A,,Clear,0,2013-08-23 02:53:00
8:53 PM,70.0,53.1,55,29.85,10.0,North,4.6,-,N/A,,Clear,350,2013-08-23 03:53:00
9:53 PM,64.9,50.0,58,29.86,10.0,Calm,Calm,-,N/A,,Clear,0,2013-08-23 04:53:00
10:53 PM,66.0,48.0,52,29.85,10.0,NE,3.5,-,N/A,,Clear,40,2013-08-23 05:53:00
11:53 PM,66.0,48.0,52,29.84,10.0,Calm,Calm,-,N/A,,Clear,0,2013-08-23 06:53:00